Time,TemperatureF,DewpointF,PressureIn,WindDirection,WindDirectionDegrees,WindSpeedMPH,WindSpeedGustMPH,Humidity,HourlyPrecipIn,Conditions,Clouds,dailyrainin,SoftwareType,DateUTC
2013-01-22 00:04:00,23.0,6.0,-100.00,NW,310,16.0,27.0,48,0.00,,,-99.99,,2013-01-22 05:04:00,
2013-01-22 00:12:00,22.0,4.0,-100.00,NW,305,12.0,29.0,47,0.00,,,-99.99,,2013-01-22 05:12:00,
2013-01-22 00:23:00,22.0,4.0,-100.00,NW,305,12.0,29.0,47,0.00,,,-99.99,,2013-01-22 05:23:00,
2013-01-22 00:33:00,21.0,3.0,-100.00,NW,310,16.0,33.0,46,0.00,,,-99.99,,2013-01-22 05:33:00,
2013-01-22 00:43:00,20.0,2.0,-100.00,NW,315,12.0,30.0,45,0.00,,,-99.99,,2013-01-22 05:43:00,
2013-01-22 00:52:00,20.0,2.0,-100.00,NW,305,11.0,27.0,45,0.00,,,-99.99,,2013-01-22 05:52:00,
2013-01-22 01:02:00,20.0,2.0,-100.00,NW,305,11.0,27.0,45,0.00,,,-99.99,,2013-01-22 06:02:00,
2013-01-22 01:12:00,19.0,2.0,-100.00,NW,310,9.0,22.0,46,0.00,,,-99.99,,2013-01-22 06:12:00,
2013-01-22 01:22:00,19.0,3.0,-100.00,NNW,330,9.0,21.0,49,0.00,,,-99.99,,2013-01-22 06:22:00,
2013-01-22 01:33:00,19.0,3.0,-100.00,NNW,330,9.0,21.0,49,0.00,,,-99.99,,2013-01-22 06:33:00,
2013-01-22 01:42:00,18.0,2.0,-100.00,NNW,330,9.0,19.0,49,0.00,,,-99.99,,2013-01-22 06:42:00,
2013-01-22 01:52:00,18.0,2.0,-100.00,NW,310,10.0,25.0,48,0.00,,,-99.99,,2013-01-22 06:52:00,
2013-01-22 02:02:00,18.0,2.0,-100.00,NW,310,10.0,25.0,48,0.00,,,-99.99,,2013-01-22 07:02:00,
2013-01-22 02:12:00,18.0,1.0,-100.00,NW,310,7.0,18.0,48,0.00,,,-99.99,,2013-01-22 07:12:00,
2013-01-22 02:22:00,18.0,1.0,-100.00,NW,310,7.0,18.0,48,0.00,,,-99.99,,2013-01-22 07:22:00,
2013-01-22 02:33:00,17.0,0.0,-100.00,WNW,300,6.0,17.0,48,0.00,,,-99.99,,2013-01-22 07:33:00,
2013-01-22 02:42:00,17.0,0.0,-100.00,WNW,290,12.0,18.0,48,0.00,,,-99.99,,2013-01-22 07:42:00,
2013-01-22 02:52:00,17.0,0.0,-100.00,NW,315,11.0,22.0,48,0.00,,,-99.99,,2013-01-22 07:52:00,
2013-01-22 03:02:00,17.0,0.0,-100.00,NW,315,11.0,22.0,48,0.00,,,-99.99,,2013-01-22 08:02:00,
2013-01-22 03:12:00,17.0,0.0,-100.00,NW,315,7.0,20.0,48,0.00,,,-99.99,,2013-01-22 08:12:00,
2013-01-22 03:22:00,16.0,0.0,-100.00,NW,310,8.0,19.0,49,0.00,,,-99.99,,2013-01-22 08:22:00,
2013-01-22 03:32:00,16.0,0.0,-100.00,NW,310,8.0,19.0,49,0.00,,,-99.99,,2013-01-22 08:32:00,
2013-01-22 03:42:00,16.0,0.0,-100.00,NW,310,9.0,21.0,49,0.00,,,-99.99,,2013-01-22 08:42:00,
2013-01-22 03:52:00,16.0,0.0,-100.00,NW,305,9.0,18.0,49,0.00,,,-99.99,,2013-01-22 08:52:00,
2013-01-22 04:02:00,16.0,0.0,-100.00,NW,305,9.0,18.0,49,0.00,,,-99.99,,2013-01-22 09:02:00,
2013-01-22 04:12:00,16.0,1.0,-100.00,NW,315,9.0,20.0,50,0.00,,,-99.99,,2013-01-22 09:12:00,
2013-01-22 04:22:00,16.0,1.0,-100.00,WNW,300,10.0,17.0,52,0.00,,,-99.99,,2013-01-22 09:22:00,
2013-01-22 04:32:00,16.0,1.0,-100.00,WNW,300,10.0,17.0,52,0.00,,,-99.99,,2013-01-22 09:32:00,
2013-01-22 04:42:00,16.0,0.0,-100.00,WNW,285,12.0,32.0,50,0.00,,,-99.99,,2013-01-22 09:42:00,
2013-01-22 04:52:00,15.0,-1.0,-100.00,NW,320,16.0,30.0,48,0.00,,,-99.99,,2013-01-22 09:52:00,
2013-01-22 05:03:00,15.0,-1.0,-100.00,NW,320,16.0,30.0,48,0.00,,,-99.99,,2013-01-22 10:03:00,
2013-01-22 05:12:00,15.0,-2.0,-100.00,NW,310,14.0,31.0,46,0.00,,,-99.99,,2013-01-22 10:12:00,
2013-01-22 05:22:00,14.0,-3.0,-100.00,NW,320,14.0,27.0,46,0.00,,,-99.99,,2013-01-22 10:22:00,
2013-01-22 05:33:00,14.0,-3.0,-100.00,NW,320,14.0,27.0,46,0.00,,,-99.99,,2013-01-22 10:33:00,
2013-01-22 05:42:00,14.0,-3.0,-100.00,NW,305,12.0,22.0,46,0.00,,,-99.99,,2013-01-22 10:42:00,
2013-01-22 05:52:00,14.0,-3.0,-100.00,WNW,295,12.0,25.0,46,0.00,,,-99.99,,2013-01-22 10:52:00,
2013-01-22 06:02:00,14.0,-3.0,-100.00,WNW,295,12.0,25.0,46,0.00,,,-99.99,,2013-01-22 11:02:00,
2013-01-22 06:12:00,13.0,-4.0,-100.00,NW,310,11.0,29.0,45,0.00,,,-99.99,,2013-01-22 11:12:00,
2013-01-22 06:22:00,13.0,-4.0,-100.00,NW,315,9.0,27.0,46,0.00,,,-99.99,,2013-01-22 11:22:00,
2013-01-22 06:33:00,13.0,-4.0,-100.00,NW,315,9.0,27.0,46,0.00,,,-99.99,,2013-01-22 11:33:00,
2013-01-22 06:43:00,13.0,-4.0,-100.00,WNW,290,11.0,27.0,46,0.00,,,-99.99,,2013-01-22 11:43:00,
2013-01-22 06:53:00,13.0,-4.0,-100.00,WNW,290,11.0,27.0,46,0.00,,,-99.99,,2013-01-22 11:53:00,
2013-01-22 07:04:00,13.0,-5.0,-100.00,WNW,300,10.0,21.0,46,0.00,,,-99.99,,2013-01-22 12:04:00,
2013-01-22 07:13:00,12.0,-5.0,-100.00,WNW,300,10.0,26.0,46,0.00,,,-99.99,,2013-01-22 12:13:00,
2013-01-22 07:23:00,12.0,-5.0,-100.00,WNW,300,12.0,29.0,46,0.00,,,-99.99,,2013-01-22 12:23:00,
2013-01-22 07:33:00,12.0,-5.0,-100.00,WNW,300,12.0,29.0,46,0.00,,,-99.99,,2013-01-22 12:33:00,
2013-01-22 07:43:00,12.0,-5.0,-100.00,WNW,290,15.0,27.0,46,0.00,,,-99.99,,2013-01-22 12:43:00,
2013-01-22 07:52:00,12.0,-5.0,-100.00,WNW,285,10.0,27.0,46,0.00,,,-99.99,,2013-01-22 12:52:00,
2013-01-22 08:04:00,12.0,-5.0,-100.00,WNW,285,10.0,27.0,46,0.00,,,-99.99,,2013-01-22 13:04:00,
2013-01-22 08:13:00,12.0,-4.0,-100.00,NW,305,7.0,22.0,47,0.00,,,-99.99,,2013-01-22 13:13:00,
2013-01-22 08:23:00,13.0,-4.0,-100.00,NW,310,9.0,21.0,46,0.00,,,-99.99,,2013-01-22 13:23:00,
2013-01-22 08:33:00,13.0,-4.0,-100.00,NW,310,9.0,21.0,46,0.00,,,-99.99,,2013-01-22 13:33:00,
2013-01-22 08:43:00,14.0,-4.0,-100.00,WNW,300,9.0,26.0,45,0.00,,,-99.99,,2013-01-22 13:43:00,
2013-01-22 08:53:00,15.0,-3.0,-100.00,WNW,300,7.0,19.0,45,0.00,,,-99.99,,2013-01-22 13:53:00,
2013-01-22 09:03:00,15.0,-3.0,-100.00,WNW,300,7.0,19.0,45,0.00,,,-99.99,,2013-01-22 14:03:00,
2013-01-22 09:13:00,15.0,-3.0,-100.00,WNW,300,11.0,24.0,44,0.00,,,-99.99,,2013-01-22 14:13:00,
2013-01-22 09:23:00,15.0,-3.0,-100.00,WNW,300,11.0,24.0,44,0.00,,,-99.99,,2013-01-22 14:23:00,
2013-01-22 09:34:00,16.0,-3.0,-100.00,WNW,300,9.0,22.0,43,0.00,,,-99.99,,2013-01-22 14:34:00,
2013-01-22 09:44:00,15.0,-3.0,-100.00,NW,325,11.0,22.0,43,0.00,,,-99.99,,2013-01-22 14:44:00,
2013-01-22 09:53:00,16.0,-2.0,-100.00,NW,315,11.0,21.0,43,0.00,,,-99.99,,2013-01-22 14:53:00,
2013-01-22 10:04:00,16.0,-2.0,-100.00,NW,315,11.0,21.0,43,0.00,,,-99.99,,2013-01-22 15:04:00,
2013-01-22 10:13:00,16.0,-3.0,-100.00,NW,305,12.0,24.0,42,0.00,,,-99.99,,2013-01-22 15:13:00,
2013-01-22 10:23:00,16.0,-3.0,-100.00,NW,305,12.0,24.0,42,0.00,,,-99.99,,2013-01-22 15:23:00,
2013-01-22 10:34:00,17.0,-2.0,-100.00,WNW,290,9.0,18.0,42,0.00,,,-99.99,,2013-01-22 15:34:00,
2013-01-22 10:43:00,17.0,-3.0,-100.00,NW,315,11.0,18.0,41,0.00,,,-99.99,,2013-01-22 15:43:00,
2013-01-22 10:52:00,18.0,-1.0,-100.00,WNW,300,7.0,18.0,41,0.00,,,-99.99,,2013-01-22 15:52:00,
2013-01-22 11:04:00,18.0,-1.0,-100.00,WNW,300,7.0,18.0,41,0.00,,,-99.99,,2013-01-22 16:04:00,
2013-01-22 11:13:00,19.0,-1.0,-100.00,West,280,9.0,21.0,40,0.00,,,-99.99,,2013-01-22 16:13:00,
2013-01-22 11:23:00,19.0,-1.0,-100.00,West,280,9.0,21.0,40,0.00,,,-99.99,,2013-01-22 16:23:00,
2013-01-22 11:33:00,18.0,-3.0,-100.00,WNW,300,9.0,23.0,39,0.00,,,-99.99,,2013-01-22 16:33:00,
2013-01-22 11:43:00,18.0,-3.0,-100.00,NW,305,9.0,20.0,39,0.00,,,-99.99,,2013-01-22 16:43:00,
2013-01-22 11:53:00,17.0,-4.0,-100.00,NW,325,7.0,19.0,39,0.00,,,-99.99,,2013-01-22 16:53:00,
2013-01-22 12:04:00,17.0,-4.0,-100.00,NW,325,7.0,19.0,39,0.00,,,-99.99,,2013-01-22 17:04:00,
2013-01-22 12:13:00,20.0,-1.0,-100.00,WNW,300,10.0,19.0,39,0.00,,,-99.99,,2013-01-22 17:13:00,
2013-01-22 12:23:00,21.0,-1.0,-100.00,WNW,290,9.0,23.0,38,0.00,,,-99.99,,2013-01-22 17:23:00,
2013-01-22 12:34:00,21.0,-1.0,-100.00,WNW,290,9.0,23.0,38,0.00,,,-99.99,,2013-01-22 17:34:00,
2013-01-22 12:43:00,21.0,-1.0,-100.00,NW,305,9.0,19.0,38,0.00,,,-99.99,,2013-01-22 17:43:00,
2013-01-22 12:53:00,21.0,-1.0,-100.00,WNW,300,11.0,19.0,37,0.00,,,-99.99,,2013-01-22 17:53:00,
2013-01-22 13:04:00,21.0,-1.0,-100.00,WNW,300,11.0,19.0,37,0.00,,,-99.99,,2013-01-22 18:04:00,
2013-01-22 13:13:00,21.0,-2.0,-100.00,WNW,290,12.0,24.0,36,0.00,,,-99.99,,2013-01-22 18:13:00,
2013-01-22 13:23:00,21.0,-2.0,-100.00,WNW,295,7.0,22.0,36,0.00,,,-99.99,,2013-01-22 18:23:00,
2013-01-22 13:34:00,21.0,-2.0,-100.00,WNW,295,7.0,22.0,36,0.00,,,-99.99,,2013-01-22 18:34:00,
2013-01-22 13:43:00,20.0,-2.0,-100.00,NW,315,9.0,19.0,37,0.00,,,-99.99,,2013-01-22 18:43:00,
2013-01-22 13:53:00,20.0,-2.0,-100.00,NW,320,8.0,22.0,37,0.00,,,-99.99,,2013-01-22 18:53:00,
2013-01-22 14:04:00,20.0,-2.0,-100.00,NW,320,8.0,22.0,37,0.00,,,-99.99,,2013-01-22 19:04:00,
2013-01-22 14:13:00,21.0,-2.0,-100.00,NW,310,13.0,24.0,37,0.00,,,-99.99,,2013-01-22 19:13:00,
2013-01-22 14:23:00,20.0,-2.0,-100.00,NNW,340,10.0,21.0,37,0.00,,,-99.99,,2013-01-22 19:23:00,
2013-01-22 14:34:00,20.0,-2.0,-100.00,NNW,340,10.0,21.0,37,0.00,,,-99.99,,2013-01-22 19:34:00,
2013-01-22 14:43:00,21.0,-1.0,-100.00,NW,325,11.0,21.0,37,0.00,,,-99.99,,2013-01-22 19:43:00,
2013-01-22 14:53:00,22.0,-1.0,-100.00,NW,310,6.0,19.0,37,0.00,,,-99.99,,2013-01-22 19:53:00,
2013-01-22 15:03:00,22.0,-1.0,-100.00,NW,310,6.0,19.0,37,0.00,,,-99.99,,2013-01-22 20:03:00,
2013-01-22 15:13:00,20.0,-3.0,-100.00,NW,320,10.0,19.0,37,0.00,,,-99.99,,2013-01-22 20:13:00,
2013-01-22 15:23:00,20.0,-3.0,-100.00,NW,315,9.0,19.0,37,0.00,,,-99.99,,2013-01-22 20:23:00,
2013-01-22 15:33:00,20.0,-3.0,-100.00,NW,315,9.0,19.0,37,0.00,,,-99.99,,2013-01-22 20:33:00,
2013-01-22 15:43:00,20.0,-2.0,-100.00,NW,310,11.0,22.0,37,0.00,,,-99.99,,2013-01-22 20:43:00,
2013-01-22 15:53:00,20.0,-2.0,-100.00,NW,315,8.0,21.0,37,0.00,,,-99.99,,2013-01-22 20:53:00,
2013-01-22 16:04:00,20.0,-2.0,-100.00,NW,315,8.0,21.0,37,0.00,,,-99.99,,2013-01-22 21:04:00,
2013-01-22 16:13:00,19.0,-3.0,-100.00,NW,320,7.0,21.0,38,0.00,,,-99.99,,2013-01-22 21:13:00,
2013-01-22 16:23:00,19.0,-3.0,-100.00,NW,320,7.0,21.0,38,0.00,,,-99.99,,2013-01-22 21:23:00,
2013-01-22 16:34:00,18.0,-3.0,-100.00,NW,310,11.0,20.0,38,0.00,,,-99.99,,2013-01-22 21:34:00,
2013-01-22 16:43:00,18.0,-3.0,-100.00,NW,320,11.0,23.0,38,0.00,,,-99.99,,2013-01-22 21:43:00,
2013-01-22 16:53:00,18.0,-3.0,-100.00,NW,325,9.0,17.0,39,0.00,,,-99.99,,2013-01-22 21:53:00,
2013-01-22 17:03:00,18.0,-3.0,-100.00,NW,325,9.0,17.0,39,0.00,,,-99.99,,2013-01-22 22:03:00,
2013-01-22 17:13:00,17.0,-4.0,-100.00,NW,315,10.0,18.0,39,0.00,,,-99.99,,2013-01-22 22:13:00,
2013-01-22 17:23:00,17.0,-4.0,-100.00,NW,315,10.0,18.0,39,0.00,,,-99.99,,2013-01-22 22:23:00,
2013-01-22 17:33:00,16.0,-4.0,-100.00,NW,320,6.0,17.0,40,0.00,,,-99.99,,2013-01-22 22:33:00,
2013-01-22 17:43:00,16.0,-5.0,-100.00,NW,310,10.0,17.0,40,0.00,,,-99.99,,2013-01-22 22:43:00,
2013-01-22 17:53:00,15.0,-4.0,-100.00,NW,325,7.0,14.0,41,0.00,,,-99.99,,2013-01-22 22:53:00,
2013-01-22 18:03:00,15.0,-4.0,-100.00,NW,325,7.0,14.0,41,0.00,,,-99.99,,2013-01-22 23:03:00,
2013-01-22 18:12:00,15.0,-4.0,-100.00,NW,310,7.0,14.0,42,0.00,,,-99.99,,2013-01-22 23:12:00,
2013-01-22 18:24:00,15.0,-4.0,-100.00,NW,315,5.0,13.0,43,0.00,,,-99.99,,2013-01-22 23:24:00,
2013-01-22 18:33:00,15.0,-4.0,-100.00,NW,315,5.0,13.0,43,0.00,,,-99.99,,2013-01-22 23:33:00,
2013-01-22 18:43:00,14.0,-4.0,-100.00,NW,320,6.0,10.0,43,0.00,,,-99.99,,2013-01-22 23:43:00,
2013-01-22 18:53:00,14.0,-4.0,-100.00,NW,310,4.0,15.0,44,0.00,,,-99.99,,2013-01-22 23:53:00,
2013-01-22 19:03:00,14.0,-4.0,-100.00,NW,310,4.0,15.0,44,0.00,,,-99.99,,2013-01-23 00:03:00,
2013-01-22 19:12:00,15.0,-4.0,-100.00,WNW,295,6.0,19.0,44,0.00,,,-99.99,,2013-01-23 00:12:00,
2013-01-22 19:23:00,15.0,-4.0,-100.00,WNW,295,6.0,19.0,44,0.00,,,-99.99,,2013-01-23 00:23:00,
2013-01-22 19:33:00,14.0,-3.0,-100.00,NW,310,7.0,15.0,45,0.00,,,-99.99,,2013-01-23 00:33:00,
2013-01-22 19:43:00,14.0,-4.0,-100.00,NW,315,4.0,11.0,45,0.00,,,-99.99,,2013-01-23 00:43:00,
2013-01-22 19:52:00,14.0,-3.0,-100.00,NW,305,9.0,16.0,46,0.00,,,-99.99,,2013-01-23 00:52:00,
2013-01-22 20:03:00,14.0,-3.0,-100.00,NW,305,9.0,16.0,46,0.00,,,-99.99,,2013-01-23 01:03:00,
2013-01-22 20:13:00,13.0,-3.0,-100.00,NW,315,6.0,14.0,47,0.00,,,-99.99,,2013-01-23 01:13:00,
2013-01-22 20:23:00,13.0,-3.0,-100.00,NW,315,6.0,14.0,47,0.00,,,-99.99,,2013-01-23 01:23:00,
2013-01-22 20:33:00,13.0,-3.0,-100.00,NW,305,9.0,15.0,47,0.00,,,-99.99,,2013-01-23 01:33:00,
2013-01-22 20:43:00,14.0,-3.0,-100.00,NW,315,8.0,17.0,47,0.00,,,-99.99,,2013-01-23 01:43:00,
2013-01-22 20:52:00,14.0,-2.0,-100.00,NW,305,7.0,16.0,48,0.00,,,-99.99,,2013-01-23 01:52:00,
2013-01-22 21:03:00,14.0,-2.0,-100.00,NW,305,7.0,16.0,48,0.00,,,-99.99,,2013-01-23 02:03:00,
2013-01-22 21:13:00,14.0,-2.0,-100.00,NW,315,6.0,19.0,48,0.00,,,-99.99,,2013-01-23 02:13:00,
2013-01-22 21:23:00,14.0,-2.0,-100.00,NW,315,6.0,19.0,48,0.00,,,-99.99,,2013-01-23 02:23:00,
2013-01-22 21:33:00,13.0,-3.0,-100.00,NW,305,9.0,14.0,48,0.00,,,-99.99,,2013-01-23 02:33:00,
2013-01-22 21:43:00,13.0,-3.0,-100.00,WNW,300,9.0,14.0,48,0.00,,,-99.99,,2013-01-23 02:43:00,
2013-01-22 22:03:00,13.0,-3.0,-100.00,NW,305,6.0,19.0,48,0.00,,,-99.99,,2013-01-23 03:03:00,
2013-01-22 22:13:00,13.0,-3.0,-100.00,NW,310,6.0,16.0,49,0.00,,,-99.99,,2013-01-23 03:13:00,
2013-01-22 22:23:00,13.0,-3.0,-100.00,NW,310,6.0,16.0,49,0.00,,,-99.99,,2013-01-23 03:23:00,
2013-01-22 22:33:00,13.0,-3.0,-100.00,West,275,4.0,11.0,49,0.00,,,-99.99,,2013-01-23 03:33:00,
2013-01-22 22:42:00,12.0,-3.0,-100.00,WNW,300,3.0,7.0,50,0.00,,,-99.99,,2013-01-23 03:42:00,
2013-01-22 22:53:00,12.0,-3.0,-100.00,NW,310,4.0,8.0,51,0.00,,,-99.99,,2013-01-23 03:53:00,
2013-01-22 23:03:00,12.0,-3.0,-100.00,NW,310,4.0,8.0,51,0.00,,,-99.99,,2013-01-23 04:03:00,
2013-01-22 23:13:00,11.0,-3.0,-100.00,NW,310,3.0,7.0,52,0.00,,,-99.99,,2013-01-23 04:13:00,
2013-01-22 23:23:00,11.0,-3.0,-100.00,NW,310,3.0,7.0,52,0.00,,,-99.99,,2013-01-23 04:23:00,
2013-01-22 23:33:00,11.0,-3.0,-100.00,WNW,300,2.0,6.0,52,0.00,,,-99.99,,2013-01-23 04:33:00,
2013-01-22 23:43:00,11.0,-3.0,-100.00,NW,305,2.0,6.0,53,0.00,,,-99.99,,2013-01-23 04:43:00,
2013-01-22 23:52:00,11.0,-3.0,-100.00,WNW,290,1.0,6.0,54,0.00,,,-99.99,,2013-01-23 04:52:00,